Belton, TX

10:10 PM CST on December 04, 2016 (GMT -0600)
Draughon-Miller Central Texas Regional

Weather History for KTPL - July, 2013

Change the Weather History Date:

Friday, July 26, 2013

  Actual Average Record
Temperature  
Mean Temperature 86 °F -  
Max Temperature 96 °F 94 °F 102 °F (2011)
Min Temperature 75 °F 71 °F 66 °F (2004)
Cooling Degree Days 20    
Growing Degree Days 36 (Base 50)    
Moisture  
Dew Point 70 °F    
Average Humidity 63    
Maximum Humidity 89    
Minimum Humidity 39    
Precipitation  
Precipitation 0.44 in - - ()
Sea Level Pressure  
Sea Level Pressure 29.97 in    
Wind  
Wind Speed 11 mph (South)    
Max Wind Speed 18 mph    
Max Gust Speed 23 mph    
Visibility 10 miles    
Events Thunderstorm    
Averages and records for this station are not official NWS values.
T = Trace of Precipitation, MM = Missing Value Source: NWS Daily Summary

Daily Weather History Graph

Daily Weather History Graph

Search for Another Location

Airport or City:

Trip Planner

Search our weather history database for the weather conditions in past years. The results will help you decide how hot, cold, wet, or windy it might be!

Date:

Astronomy

Jul. 26, 2013 Rise Set
Actual Time 6:42 AM CDT 8:29 PM CDT
Civil Twilight 6:16 AM CDT 8:55 PM CDT
Nautical Twilight 5:44 AM CDT 9:27 PM CDT
Astronomical Twilight 5:10 AM CDT 10:01 PM CDT
Moon 11:08 PM CDT (7/26) 10:58 AM CDT (7/26)
Length of Visible Light 14h 39m
Length of Day
13h 46m
Waning Gibbous, 80% of the Moon is Illuminated
Jul 26
Waning Gibbous
Jul 29
Last Quarter
Aug 6
New
Aug 14
First Quarter
Aug 20
Full

Hourly Weather History & Observations

Time (CDT) Temp. Heat Index Dew Point Humidity Pressure Visibility Wind Dir Wind Speed Gust Speed Precip Events Conditions
12:15 AM 82.4 °F 83.4 °F 62.6 °F 51% 30.01 in 10.0 mi SSE 10.4 mph - N/A   Clear
12:35 AM 82.4 °F 83.4 °F 62.6 °F 51% 30.01 in 10.0 mi SSE 10.4 mph - N/A   Clear
12:55 AM 82.4 °F 83.9 °F 64.4 °F 54% 30.00 in 10.0 mi South 10.4 mph - N/A   Clear
1:15 AM 80.6 °F 82.7 °F 66.2 °F 61% 30.00 in 10.0 mi South 10.4 mph - N/A   Clear
1:35 AM 80.6 °F 83.2 °F 68.0 °F 65% 30.00 in 10.0 mi South 9.2 mph - N/A   Clear
1:55 AM 80.6 °F 83.2 °F 68.0 °F 65% 30.00 in 10.0 mi South 10.4 mph - N/A   Clear
2:15 AM 80.6 °F 83.9 °F 69.8 °F 70% 30.00 in 10.0 mi South 10.4 mph - N/A   Clear
2:35 AM 80.6 °F 83.9 °F 69.8 °F 70% 30.00 in 10.0 mi South 11.5 mph - N/A   Clear
2:55 AM 80.6 °F 83.9 °F 69.8 °F 70% 29.99 in 10.0 mi South 11.5 mph - N/A   Clear
3:15 AM 78.8 °F - 69.8 °F 74% 30.00 in 10.0 mi South 10.4 mph - N/A   Clear
3:35 AM 78.8 °F - 69.8 °F 74% 30.00 in 10.0 mi South 11.5 mph - N/A   Clear
3:55 AM 78.8 °F - 69.8 °F 74% 30.00 in 10.0 mi South 11.5 mph - N/A   Clear
4:15 AM 78.8 °F - 69.8 °F 74% 30.00 in 10.0 mi South 12.7 mph - N/A   Clear
4:35 AM 77.0 °F - 69.8 °F 78% 30.00 in 10.0 mi South 11.5 mph - N/A   Clear
4:55 AM 77.0 °F - 69.8 °F 78% 29.99 in 10.0 mi South 12.7 mph - N/A   Clear
5:15 AM 77.0 °F - 69.8 °F 78% 29.99 in 10.0 mi South 11.5 mph - N/A   Clear
5:35 AM 75.2 °F - 69.8 °F 83% 29.99 in 10.0 mi South 10.4 mph - N/A   Clear
5:55 AM 75.2 °F - 69.8 °F 83% 29.99 in 10.0 mi South 12.7 mph - N/A   Clear
6:15 AM 75.2 °F - 69.8 °F 83% 30.00 in 10.0 mi South 11.5 mph - N/A   Clear
6:35 AM 75.2 °F - 69.8 °F 83% 30.01 in 10.0 mi South 9.2 mph - N/A   Clear
6:55 AM 75.2 °F - 69.8 °F 83% 30.00 in 10.0 mi South 10.4 mph - N/A   Clear
7:15 AM 75.2 °F - 69.8 °F 83% 30.01 in 10.0 mi South 8.1 mph - N/A   Clear
7:35 AM 75.2 °F - 69.8 °F 83% 30.01 in 10.0 mi SSE 5.8 mph - N/A   Clear
7:55 AM 75.2 °F - 69.8 °F 83% 30.03 in 10.0 mi South 5.8 mph - N/A   Clear
8:15 AM 77.0 °F - 69.8 °F 78% 30.02 in 10.0 mi South 9.2 mph - N/A   Clear
8:35 AM 78.8 °F - 71.6 °F 78% 30.03 in 10.0 mi South 10.4 mph - N/A   Clear
8:55 AM 78.8 °F - 71.6 °F 78% 30.03 in 10.0 mi SSE 9.2 mph - N/A   Clear
9:15 AM 78.8 °F - 71.6 °F 78% 30.02 in 10.0 mi South 11.5 mph - N/A   Clear
9:35 AM 80.6 °F 84.6 °F 71.6 °F 74% 30.03 in 10.0 mi South 10.4 mph - N/A   Clear
9:55 AM 80.6 °F 84.6 °F 71.6 °F 74% 30.03 in 10.0 mi South 10.4 mph - N/A   Clear
10:15 AM 82.4 °F 87.2 °F 71.6 °F 70% 30.03 in 10.0 mi South 11.5 mph - N/A   Clear
10:35 AM 82.4 °F 87.2 °F 71.6 °F 70% 30.03 in 10.0 mi South 13.8 mph - N/A   Clear
10:55 AM 84.2 °F 89.6 °F 71.6 °F 66% 30.03 in 10.0 mi South 9.2 mph - N/A   Clear
11:15 AM 84.2 °F 89.6 °F 71.6 °F 66% 30.03 in 10.0 mi South 12.7 mph - N/A   Clear
11:35 AM 87.8 °F 93.8 °F 71.6 °F 58% 30.03 in 10.0 mi SSE 10.4 mph 17.3 mph N/A   Clear
11:55 AM 87.8 °F 92.6 °F 69.8 °F 55% 30.02 in 10.0 mi South 10.4 mph - N/A   Clear
12:15 PM 87.8 °F 92.6 °F 69.8 °F 55% 30.02 in 10.0 mi South 13.8 mph - N/A   Clear
12:35 PM 89.6 °F 96.2 °F 71.6 °F 55% 30.01 in 10.0 mi SSE 11.5 mph 16.1 mph N/A   Clear
12:55 PM 89.6 °F 94.7 °F 69.8 °F 52% 30.00 in 10.0 mi South 15.0 mph 18.4 mph N/A   Clear
1:15 PM 91.4 °F 98.4 °F 71.6 °F 52% 29.99 in 10.0 mi SSW 13.8 mph - N/A   Clear
1:35 PM 91.4 °F 96.8 °F 69.8 °F 49% 29.98 in 10.0 mi South 16.1 mph 20.7 mph N/A   Clear
1:55 PM 91.4 °F 96.8 °F 69.8 °F 49% 29.97 in 10.0 mi SSW 16.1 mph - N/A   Clear
2:15 PM 93.2 °F 98.8 °F 69.8 °F 46% 29.96 in 10.0 mi South 13.8 mph 20.7 mph N/A   Clear
2:35 PM 95.0 °F 101.3 °F 69.8 °F 44% 29.96 in 10.0 mi South 11.5 mph - N/A   Clear
2:55 PM 93.2 °F 97.7 °F 68.0 °F 44% 29.95 in 10.0 mi South 15.0 mph 21.9 mph N/A   Clear
3:15 PM 93.2 °F 98.8 °F 69.8 °F 46% 29.95 in 10.0 mi South 9.2 mph 17.3 mph N/A   Clear
3:35 PM 95.0 °F 101.3 °F 69.8 °F 44% 29.94 in 10.0 mi South 13.8 mph - N/A   Clear
3:55 PM 95.0 °F 101.3 °F 69.8 °F 44% 29.93 in 10.0 mi South 12.7 mph 18.4 mph N/A   Clear
4:15 PM 96.8 °F 103.1 °F 69.8 °F 41% 29.92 in 10.0 mi South 15.0 mph - N/A   Clear
4:35 PM 93.2 °F 98.8 °F 69.8 °F 46% 29.91 in 10.0 mi SSW 6.9 mph - N/A   Partly Cloudy
4:55 PM 96.8 °F 103.1 °F 69.8 °F 41% 29.90 in 10.0 mi SSW 6.9 mph 16.1 mph N/A   Clear
5:15 PM 96.8 °F 103.1 °F 69.8 °F 41% 29.90 in 10.0 mi SSW 11.5 mph 17.3 mph N/A   Clear
5:35 PM 96.8 °F 103.1 °F 69.8 °F 41% 29.89 in 10.0 mi SSE 13.8 mph - N/A   Clear
5:55 PM 96.8 °F 103.1 °F 69.8 °F 41% 29.88 in 10.0 mi South 11.5 mph - N/A   Clear
6:15 PM 96.8 °F 101.8 °F 68.0 °F 39% 29.88 in 10.0 mi South 10.4 mph - N/A   Clear
6:35 PM 95.0 °F 98.5 °F 66.2 °F 39% 29.87 in 10.0 mi SSE 15.0 mph - N/A   Clear
6:55 PM 95.0 °F 98.5 °F 66.2 °F 39% 29.87 in 10.0 mi South 12.7 mph - N/A   Clear
7:15 PM 93.2 °F 96.2 °F 66.2 °F 41% 29.88 in 10.0 mi South 9.2 mph - N/A   Clear
7:35 PM 91.4 °F 94.0 °F 66.2 °F 43% 29.86 in 10.0 mi SSE 9.2 mph - N/A   Clear
7:55 PM 91.4 °F 96.8 °F 69.8 °F 49% 29.86 in 10.0 mi SSE 10.4 mph - N/A   Clear
8:15 PM 89.6 °F 94.7 °F 69.8 °F 52% 29.87 in 8.0 mi SSE 11.5 mph - N/A   Clear
8:35 PM 89.6 °F 93.4 °F 68.0 °F 49% 29.86 in 10.0 mi SSE 15.0 mph 18.4 mph N/A   Clear
8:55 PM 89.6 °F 93.4 °F 68.0 °F 49% 29.86 in 10.0 mi SSE 16.1 mph - N/A   Scattered Clouds
9:15 PM 89.6 °F 93.4 °F 68.0 °F 49% 29.91 in 10.0 mi North 18.4 mph 23.0 mph N/A Thunderstorm Thunderstorm
9:35 PM 78.8 °F - 73.4 °F 83% 29.96 in 3.0 mi North 6.9 mph - 0.32 in Thunderstorm Thunderstorm
9:55 PM 77.0 °F - 73.4 °F 89% 29.96 in 10.0 mi ENE 9.2 mph - 0.43 in Thunderstorm Thunderstorm
10:15 PM 77.0 °F - 73.4 °F 89% 29.95 in 10.0 mi ESE 12.7 mph - 0.01 in Thunderstorm Overcast
10:35 PM 77.0 °F - 73.4 °F 89% 29.95 in 10.0 mi East 11.5 mph - 0.01 in Thunderstorm Overcast
10:55 PM 77.0 °F - 73.4 °F 89% 29.96 in 10.0 mi Calm Calm - 0.01 in   Overcast
11:15 PM 78.8 °F - 73.4 °F 83% 29.95 in 10.0 mi SSW 4.6 mph - N/A   Overcast
11:35 PM 77.0 °F - 73.4 °F 89% 29.96 in 10.0 mi SSW 5.8 mph - N/A   Mostly Cloudy
11:55 PM 78.8 °F - 73.4 °F 83% 29.97 in 10.0 mi SSW 9.2 mph - N/A   Overcast